Location: Unspecified
(50.6670°N, 0.0000°E)
Time: 03:31:48
(UTC+00:00)

Cosmos 1503 Rocket - Visible Passes

Search period start: 04 April 2026 00:00
Search period end: 14 April 2026 00:00
Orbit: 747 x 787 km, 74.0° (Epoch: 29 March)

Date Brightness Start Highest point End Pass type
(mag) Time Alt. Az. Time Alt. Az. Time Alt. Az.
4 Apr 7.0 03:29:46 10° N 03:33:10 17° NE 03:36:32 10° E visible
4 Apr 4.0 19:52:36 10° SSW 19:57:56 79° ESE 20:03:19 10° NNE visible
4 Apr 6.5 21:36:27 10° W 21:40:38 23° NW 21:44:50 10° N visible
5 Apr 7.2 02:53:09 10° N 02:55:18 12° NE 02:57:25 10° ENE visible
5 Apr 5.3 04:33:39 10° NNW 04:38:48 46° ENE 04:43:52 10° SE visible
5 Apr 4.2 19:15:33 10° S 19:20:41 50° ESE 19:25:52 10° NNE visible
5 Apr 5.9 20:58:12 10° WSW 21:02:58 32° NW 21:07:46 10° N visible
6 Apr 6.1 03:56:29 10° N 04:01:14 32° NE 04:05:55 10° ESE visible
6 Apr 5.2 20:20:16 10° SW 20:25:24 47° WNW 20:30:36 10° NNE visible
6 Apr 7.3 22:06:41 10° WNW 22:08:54 12° NW 22:11:07 10° N visible
7 Apr 6.6 03:19:25 10° N 03:23:34 22° NE 03:27:40 10° E visible
7 Apr 4.4 19:42:37 10° SSW 19:47:57 72° WNW 19:53:20 10° NNE visible
7 Apr 7.0 21:27:36 10° W 21:31:01 17° NW 21:34:28 10° N visible
8 Apr 7.1 02:42:30 10° N 02:45:47 16° NE 02:49:03 10° E visible
8 Apr 4.5 04:23:35 10° NNW 04:28:54 68° ENE 04:34:08 10° SSE visible
8 Apr 6.6 20:49:00 10° W 20:53:15 23° NW 20:57:32 10° N visible
9 Apr 7.4 02:05:57 10° NNE 02:07:54 12° NE 02:09:50 10° NE visible
9 Apr 5.3 03:46:19 10° NNW 03:51:26 45° ENE 03:56:28 10° SE visible
9 Apr 6.0 20:10:47 10° WSW 20:15:36 33° NW 20:20:27 10° N visible
10 Apr 6.0 03:09:09 10° N 03:13:52 30° NE 03:18:29 10° ESE visible
10 Apr 5.2 19:32:52 10° SW 19:38:03 49° WNW 19:43:16 10° NNE visible
10 Apr 7.3 21:19:08 10° WNW 21:21:29 13° NW 21:23:52 10° N visible
11 Apr 6.6 02:32:07 10° N 02:36:10 22° NE 02:40:12 10° E visible
11 Apr 4.0 04:13:35 10° NNW 04:18:55 82° WSW 04:24:09 10° SSE visible
11 Apr 7.1 20:40:06 10° W 20:43:38 17° NW 20:47:10 10° N visible
12 Apr 7.0 01:55:13 10° N 01:58:23 16° NE 02:01:31 10° ENE visible
12 Apr 4.5 03:36:14 10° NNW 03:41:33 65° ENE 03:46:45 10° SE visible
12 Apr 6.6 20:01:34 10° WSW 20:05:52 24° NW 20:10:12 10° N visible
13 Apr 7.2 01:18:45 10° NNE 01:20:29 11° NNE 01:22:12 10° NE visible
13 Apr 5.3 02:59:00 10° NNW 03:04:03 43° ENE 03:09:03 10° SE visible
13 Apr 6.0 19:23:22 10° WSW 19:28:14 34° NW 19:33:07 10° NNE visible
